Weather in Sargazy

Russia / Chelyabinsk Oblast     55°01′19″N   61°15′03″E
temp.,
°C
wind,
m/s
gust,
m/s
humid.,
%
clouds,
%
prec.,
mm/h
press.,
hPa
HPBL,
m
8 march, mon
mon823:00−16nw5108862 0.2 1009180
02:00−18wnw47900 0.0 101092
05:00−19wsw34900 0.0 101239
08:00−19ssw448633 0.0 101172
11:00−13ssw6119167 0.0 1009407
14:00−8ssw91386100 0.6 1007930
17:00−5sw81484100 0.8 10061182
20:00−7sw8187967 0.0 1005553
9 march, tue
tue923:00−6sw8168150 0.0 1006437
02:00−8ssw6118867 0.0 1007268
05:00−7ssw6158883 0.0 1006480
08:00−6ssw91685100 0.0 1004649
11:00−3wsw10158868 0.1 10041472
14:00−4w10147254 0.1 10071461
17:00−4w488040 0.1 1010466
20:00−9w3377100 0.0 101221
10 march, wed
wed1023:00−11sse1180100 0.0 101221
02:00−11se2387100 0.0 101022
05:00−10ese3791100 0.0 1008175
08:00−9se5995100 0.6 1005323
11:00−7se5895100 1.6 1002391
14:00−5se6895100 1.1 999510
17:00−4se5896100 2.4 997503
20:00−11ssw478567 1.1 998129
11 march, thu
thu1123:00−17s338833 1.1 99921
02:00−21ne11960 0.0 100020
05:00−15n5129618 0.2 1002418
08:00−17n81395100 0.6 1005567
11:00−16nnw81292100 1.1 1007583
14:00−13nnw71288100 0.1 1009790
17:00−12nw71080100 0.1 1010925
20:00−15nw7148494 0.0 1013708
12 march, fri
fri1223:00−18wnw6138596 0.0 1015428
02:00−20wnw5118857 0.0 1016259
05:00−19w4108978 0.0 1017269
08:00−16wnw479598 0.2 1019228
11:00−14wnw488588 0.3 1020639
14:00−10wnw7978100 0.0 10211033
17:00−9wnw6979100 0.1 1022984
20:00−15wnw458633 0.0 102474